Preview of NWS' New Version of Forecast
This preview is not operational and should not be used for support decisions.

Regional Weather Roundup (RWR)

Issued by National Weather Service (NWS)

                            
000
ASUS45 KCYS 152110
RWRWY 

WYOMING REGIONAL WEATHER ROUNDUP
NATIONAL WEATHER SERVICE CHEYENNE WY
300 PM MDT MON OCT 15 2018

NOTE:  "FAIR" INDICATES FEW OR NO CLOUDS BELOW 12,000 FEET
WITH NO SIGNIFICANT WEATHER AND/OR OBSTRUCTIONS TO VISIBILITY.

WYZ001-152200-
YELLOWSTONE NATIONAL PARK
  
CITY           SKY/WX    TMP DP  RH WIND       PRES   REMARKS
LK YELLOWSTONE   N/A     32  19  58 VRB5      30.39F WCI  27          
W YELLOWSTONE  NOT AVBL                                               

$$
WYZ002>013-054>058-071-098>099-152200-
NORTHERN WYOMING
  
CITY           SKY/WX    TMP DP  RH WIND       PRES   REMARKS
JACKSON        FAIR      43  15  32 VRB6      30.36F                  
CODY           FAIR      43  26  51 CALM      30.32F                  
GREYBULL       FAIR      43  19  38 S8        30.34F                  
WORLAND        FAIR      44  21  40 E3        30.33F                  
SHERIDAN       FAIR      49  33  54 NW5       30.21F                  
BUFFALO        CLOUDY    51  26  37 CALM      30.21F                  
GILLETTE       CLOUDY    47  27  45 W16       30.20F                  
HULETT         FAIR      46  28  49 SW14      30.18F                  
NEWCASTLE      FAIR      39  21  48 W5        30.23F                  

$$
WYZ014>020-022>026-101>103-152200-
CENTRAL WYOMING
  
CITY           SKY/WX    TMP DP  RH WIND       PRES   REMARKS
BIG PINEY      FAIR      45  13  27 S8        30.34F                  
PINEDALE       FAIR      45  14  29 SE8       30.34F                  
DUBOIS         FAIR      43  12  28 SE13      30.29S                  
LANDER         FAIR      38  25  59 SE3       30.32F                  
RIVERTON       FAIR      37  21  52 CALM      30.34F                  
CASPER         FAIR      44  18  35 W15       30.31F                  
DOUGLAS        FAIR      47  17  30 W23G33    30.27F                  

$$
WYZ021-027>030-104>119-152200-
SOUTHERN WYOMING
  
CITY           SKY/WX    TMP DP  RH WIND       PRES   REMARKS
EVANSTON       FAIR      41  15  35 N8        30.36F                  
KEMMERER       FAIR      43  14  31 SW5       30.36R                  
ROCK SPRINGS   FAIR      40   9  28 W7        30.36F                  
DIXON          FAIR      39   7  27 S6        30.40S WCI  35          
RAWLINS        FAIR      40  11  30 SW13      30.35S WCI  32          
SARATOGA       FAIR      37   9  30 NW3       30.35F                  
LARAMIE        FAIR      34  13  41 CALM      30.31F                  
CHEYENNE       FAIR      39  17  41 NW16      30.29S WCI  30          
TORRINGTON     FAIR      43  29  57 SW8       30.26F                  
PINE BLUFFS    FAIR      37  23  56 W9        30.30F WCI  31          

$$